This is the latest recevied weather packets stored in our database for station/object KC9GSD. If no packets are shown the sender has not sent any weather packets the latest 10 day(s).
| Time | Temp. | Humidity | Pressure | Rain* | Wind** | Luminosity | Snow |
|---|---|---|---|---|---|---|---|
| 1778077911 | 20° C | 85% | 1014 hPa | 0 mm | - | 76 W/m² | - |
| 1778077609 | 20° C | 85% | 1013.9 hPa | 0 mm | - | 95 W/m² | - |
| 1778077306 | 20° C | 85% | 1014 hPa | 0 mm | - | 81 W/m² | - |
| 1778077004 | 19.44° C | 86% | 1014.2 hPa | 0 mm | - | 66 W/m² | - |
| 1778076702 | 19.44° C | 86% | 1013.9 hPa | 0 mm | - | 41 W/m² | - |
| 1778076399 | 19.44° C | 86% | 1014.3 hPa | 0 mm | - | 31 W/m² | - |
| 1778076096 | 19.44° C | 86% | 1014.2 hPa | 0 mm | - | 25 W/m² | - |
| 1778075793 | 19.44° C | 86% | 1014.2 hPa | 0 mm | - | 25 W/m² | - |
| 1778075489 | 19.44° C | 87% | 1014.2 hPa | 0 mm | - | 36 W/m² | - |
| 1778075186 | 19.44° C | 87% | 1014 hPa | 0 mm | - | 46 W/m² | - |
| 1778074881 | 19.44° C | 87% | 1014.3 hPa | 0 mm | - | 27 W/m² | - |
| 1778074579 | 18.89° C | 88% | 1014 hPa | 0 mm | - | 23 W/m² | - |
| 1778074276 | 18.89° C | 88% | 1014 hPa | 0 mm | - | 22 W/m² | - |
| 1778073974 | 19.44° C | 88% | 1013.9 hPa | 0 mm | - | 18 W/m² | - |
| 1778073670 | 19.44° C | 86% | 1014.1 hPa | 0 mm | - | 23 W/m² | - |
| 1778073368 | 18.89° C | 86% | 1014.1 hPa | 0 mm | - | 15 W/m² | - |
| 1778073064 | 18.89° C | 86% | 1014.1 hPa | 0 mm | - | 14 W/m² | - |
| 1778072761 | 18.89° C | 86% | 1014.1 hPa | 0 mm | - | 12 W/m² | - |
| 1778072458 | 18.89° C | 86% | 1014 hPa | 0 mm | - | 12 W/m² | - |
| 1778072157 | 18.89° C | 86% | 1013.8 hPa | 0 mm | - | 11 W/m² | - |
| 1778071854 | 18.89° C | 86% | 1013.8 hPa | 0 mm | - | 13 W/m² | - |
| 1778071552 | 18.89° C | 86% | 1013.5 hPa | 0 mm | - | 18 W/m² | - |
| 1778071249 | 18.89° C | 86% | 1013.5 hPa | 0 mm | - | 19 W/m² | - |
| 1778070947 | 18.89° C | 85% | 1013.3 hPa | 0 mm | - | 21 W/m² | - |
| 1778070645 | 18.89° C | 85% | 1013.2 hPa | 0 mm | - | 20 W/m² | - |
* Rain latest hour (hover to see other rain measurements)
** Current wind speed in m/s (hover to see current wind gust speed)